| time (UTC) | temp F | wind direction | speed MPH | gust MPH | rain 1hr in | rain 24hr in | rain mn in | humidity % | barometer mb |
| 20260506172455 | 62 | 240 | 1.0 | 2.0 | 0.00 | 0.01 | 0.00 | 95 | 1005.2 |
| 20260506171956 | 62 | 250 | 0.0 | 2.0 | 0.00 | 0.01 | 0.00 | 95 | 1005.2 |
| 20260506171457 | 62 | 214 | 0.0 | 2.0 | 0.00 | 0.01 | 0.00 | 95 | 1005.3 |
| 20260506170951 | 62 | 156 | 1.0 | 1.0 | 0.00 | 0.01 | 0.00 | 95 | 1005.4 |
| 20260506170450 | 62 | 181 | 4.0 | 1.0 | 0.00 | 0.01 | 0.00 | 95 | 1005.3 |
| 20260506165950 | 62 | 255 | 0.0 | 0.0 | 0.00 | 0.01 | 0.00 | 95 | 1005.3 |
| 20260506165448 | 62 | 172 | 2.0 | 3.0 | 0.00 | 0.01 | 0.00 | 94 | 1005.3 |
| 20260506164948 | 63 | 267 | 1.0 | 3.0 | 0.00 | 0.01 | 0.00 | 93 | 1005.2 |
| 20260506164521 | 63 | 217 | 3.0 | 3.0 | 0.00 | 0.01 | 0.00 | 94 | 1005.2 |
| 20260506164449 | 63 | 217 | 3.0 | 3.0 | 0.00 | 0.01 | 0.00 | 94 | 1005.2 |
| 20260506164032 | 63 | 197 | 1.0 | 1.0 | 0.00 | 0.01 | 0.00 | 94 | 1005.3 |
| 20260506163945 | 63 | 197 | 1.0 | 1.0 | 0.00 | 0.01 | 0.00 | 94 | 1005.3 |
| 20260506163446 | 63 | 290 | 1.0 | 0.0 | 0.00 | 0.01 | 0.00 | 94 | 1005.5 |
| 20260506162947 | 63 | 187 | 1.0 | 1.0 | 0.00 | 0.01 | 0.00 | 93 | 1005.7 |
| 20260506162442 | 63 | 250 | 2.0 | 0.0 | 0.00 | 0.01 | 0.00 | 93 | 1005.9 |
| 20260506161943 | 63 | 305 | 1.0 | 3.0 | 0.00 | 0.01 | 0.00 | 92 | 1006.0 |
| 20260506161444 | 63 | 243 | 0.0 | 0.0 | 0.00 | 0.01 | 0.00 | 92 | 1006.2 |
| 20260506160938 | 64 | 243 | 0.0 | 0.0 | 0.00 | 0.01 | 0.00 | 90 | 1006.4 |
| 20260506160439 | 63 | 298 | 2.0 | 0.0 | 0.00 | 0.01 | 0.00 | 89 | 1006.4 |
| 20260506155427 | 64 | 231 | 3.0 | 1.0 | 0.00 | 0.01 | 0.00 | 88 | 1006.5 |
| 20260506154923 | 65 | 205 | 0.0 | 0.0 | 0.00 | 0.01 | 0.00 | 87 | 1006.4 |
| 20260506154418 | 65 | 329 | 1.0 | 0.0 | 0.00 | 0.01 | 0.00 | 87 | 1006.6 |
| 20260506153910 | 66 | 224 | 2.0 | 2.0 | 0.00 | 0.01 | 0.00 | 86 | 1006.7 |
| 20260506153411 | 66 | 263 | 0.0 | 5.0 | 0.00 | 0.01 | 0.00 | 86 | 1006.5 |
| 20260506153056 | 66 | 287 | 1.0 | 2.0 | 0.00 | 0.01 | 0.00 | 86 | 1006.4 |
| 20260506152408 | 66 | 287 | 1.0 | 2.0 | 0.00 | 0.01 | 0.00 | 86 | 1006.4 |
| 20260506152221 | 65 | 252 | 2.0 | 1.0 | 0.00 | 0.01 | 0.00 | 84 | 1006.4 |
| 20260506151408 | 65 | 252 | 2.0 | 1.0 | 0.00 | 0.01 | 0.00 | 84 | 1006.4 |
| 20260506151102 | 65 | 271 | 2.0 | 1.0 | 0.00 | 0.01 | 0.00 | 81 | 1006.6 |
| 20260506150517 | 65 | 271 | 2.0 | 1.0 | 0.00 | 0.01 | 0.00 | 81 | 1006.6 |
| 20260506150405 | 66 | 246 | 2.0 | 4.0 | 0.00 | 0.01 | 0.00 | 80 | 1006.6 |
| 20260506150402 | 65 | 271 | 2.0 | 1.0 | 0.00 | 0.01 | 0.00 | 81 | 1006.6 |
| 20260506150042 | 66 | 246 | 2.0 | 4.0 | 0.00 | 0.01 | 0.00 | 80 | 1006.6 |
| 20260506145858 | 66 | 246 | 2.0 | 4.0 | 0.00 | 0.01 | 0.00 | 80 | 1006.6 |
| 20260506145514 | 65 | 229 | 3.0 | 4.0 | 0.00 | 0.01 | 0.00 | 79 | 1006.7 |
| 20260506145351 | 66 | 7 | 5.0 | 2.0 | 0.00 | 0.01 | 0.00 | 79 | 1006.6 |
| 20260506144850 | 65 | 229 | 3.0 | 4.0 | 0.00 | 0.01 | 0.00 | 79 | 1006.7 |
| 20260506144350 | 66 | 323 | 0.0 | 0.0 | 0.00 | 0.01 | 0.00 | 79 | 1006.6 |
| 20260506143843 | 65 | 221 | 5.0 | 4.0 | 0.00 | 0.01 | 0.00 | 79 | 1006.6 |
| 20260506143344 | 65 | 271 | 5.0 | 2.0 | 0.00 | 0.01 | 0.00 | 78 | 1006.6 |
| 20260506142844 | 66 | 239 | 5.0 | 5.0 | 0.00 | 0.01 | 0.00 | 78 | 1006.8 |
| 20260506141839 | 66 | 233 | 3.0 | 7.0 | 0.00 | 0.01 | 0.00 | 79 | 1006.5 |
| 20260506141643 | 65 | 323 | 3.0 | 2.0 | 0.00 | 0.01 | 0.00 | 79 | 1006.5 |
| 20260506141339 | 65 | 323 | 3.0 | 2.0 | 0.00 | 0.01 | 0.00 | 79 | 1006.5 |
| 20260506140835 | 65 | 242 | 3.0 | 7.0 | 0.00 | 0.01 | 0.00 | 79 | 1006.5 |
| 20260506140336 | 65 | 231 | 5.0 | 6.0 | 0.00 | 0.01 | 0.00 | 79 | 1006.4 |
| 20260506135836 | 65 | 248 | 5.0 | 3.0 | 0.00 | 0.01 | 0.00 | 79 | 1006.5 |
| 20260506135334 | 65 | 277 | 5.0 | 7.0 | 0.00 | 0.01 | 0.00 | 79 | 1006.6 |
| 20260506134835 | 65 | 276 | 4.0 | 3.0 | 0.00 | 0.01 | 0.00 | 79 | 1006.6 |
| 20260506134335 | 65 | 159 | 4.0 | 4.0 | 0.00 | 0.01 | 0.00 | 80 | 1006.6 |
| 20260506133829 | 65 | 236 | 5.0 | 3.0 | 0.00 | 0.01 | 0.00 | 80 | 1006.7 |
| 20260506133330 | 65 | 219 | 3.0 | 5.0 | 0.00 | 0.01 | 0.00 | 79 | 1006.8 |
| 20260506132831 | 65 | 205 | 1.0 | 5.0 | 0.00 | 0.01 | 0.00 | 79 | 1006.8 |
| 20260506132328 | 65 | 197 | 4.0 | 4.0 | 0.00 | 0.01 | 0.00 | 79 | 1006.8 |
| 20260506131828 | 65 | 170 | 6.0 | 2.0 | 0.00 | 0.01 | 0.00 | 79 | 1007.0 |
| 20260506131329 | 65 | 207 | 3.0 | 7.0 | 0.00 | 0.01 | 0.00 | 79 | 1006.9 |
| 20260506130825 | 65 | 293 | 5.0 | 5.0 | 0.00 | 0.01 | 0.00 | 80 | 1006.7 |
| 20260506130325 | 65 | 252 | 3.0 | 4.0 | 0.00 | 0.01 | 0.00 | 80 | 1006.8 |
| 20260506125826 | 65 | 214 | 4.0 | 2.0 | 0.00 | 0.01 | 0.00 | 80 | 1007.0 |
| 20260506125410 | 65 | 285 | 3.0 | 8.0 | 0.00 | 0.01 | 0.00 | 81 | 1006.9 |
| 20260506125320 | 65 | 285 | 3.0 | 8.0 | 0.00 | 0.01 | 0.00 | 81 | 1006.9 |
| 20260506124820 | 65 | 128 | 7.0 | 3.0 | 0.00 | 0.01 | 0.00 | 80 | 1006.7 |
| 20260506124321 | 65 | 312 | 3.0 | 3.0 | 0.00 | 0.01 | 0.00 | 80 | 1006.6 |
| 20260506123815 | 65 | 203 | 6.0 | 2.0 | 0.00 | 0.01 | 0.00 | 81 | 1006.5 |
| 20260506123315 | 65 | 323 | 1.0 | 0.0 | 0.00 | 0.01 | 0.00 | 81 | 1006.5 |
| 20260506122816 | 65 | 271 | 1.0 | 3.0 | 0.00 | 0.01 | 0.00 | 82 | 1006.4 |
| 20260506122313 | 65 | 242 | 5.0 | 2.0 | 0.00 | 0.01 | 0.00 | 82 | 1006.6 |
| 20260506121813 | 64 | 232 | 5.0 | 4.0 | 0.00 | 0.01 | 0.00 | 83 | 1006.6 |
| 20260506121312 | 64 | 294 | 3.0 | 4.0 | 0.00 | 0.01 | 0.00 | 84 | 1006.7 |
| 20260506120758 | 64 | 236 | 3.0 | 3.0 | 0.00 | 0.01 | 0.00 | 84 | 1006.8 |
| 20260506114750 | 63 | 243 | 2.0 | 1.0 | 0.00 | 0.01 | 0.00 | 85 | 1006.9 |
| 20260506114251 | 63 | 298 | 2.0 | 4.0 | 0.00 | 0.01 | 0.00 | 85 | 1007.0 |
| 20260506113249 | 63 | 281 | 4.0 | 3.0 | 0.00 | 0.01 | 0.00 | 86 | 1006.9 |
| 20260506112750 | 63 | 207 | 0.0 | 0.0 | 0.00 | 0.01 | 0.00 | 86 | 1007.0 |
| 20260506112246 | 63 | 239 | 1.0 | 2.0 | 0.00 | 0.01 | 0.00 | 87 | 1006.9 |
| 20260506111747 | 62 | 248 | 3.0 | 3.0 | 0.00 | 0.01 | 0.00 | 87 | 1006.9 |
| 20260506111247 | 62 | 297 | 3.0 | 4.0 | 0.00 | 0.01 | 0.00 | 88 | 1006.9 |
| 20260506110742 | 62 | 188 | 2.0 | 2.0 | 0.00 | 0.01 | 0.00 | 88 | 1006.8 |
| 20260506110242 | 62 | 283 | 2.0 | 11.0 | 0.00 | 0.01 | 0.00 | 88 | 1006.9 |
| 20260506105741 | 62 | 253 | 5.0 | 2.0 | 0.00 | 0.01 | 0.00 | 89 | 1006.8 |
| 20260506105238 | 62 | 302 | 4.0 | 5.0 | 0.00 | 0.01 | 0.00 | 90 | 1006.7 |
| 20260506104737 | 61 | 193 | 3.0 | 2.0 | 0.00 | 0.01 | 0.00 | 90 | 1006.6 |
| 20260506104238 | 61 | 263 | 3.0 | 3.0 | 0.00 | 0.01 | 0.00 | 90 | 1006.6 |
| 20260506103733 | 61 | 170 | 2.0 | 0.0 | 0.00 | 0.01 | 0.00 | 91 | 1006.6 |
| 20260506102732 | 61 | 200 | 2.0 | 1.0 | 0.00 | 0.01 | 0.00 | 91 | 1006.6 |
| 20260506102228 | 61 | 312 | 3.0 | 6.0 | 0.00 | 0.01 | 0.00 | 91 | 1006.7 |
| 20260506101728 | 61 | 283 | 1.0 | 3.0 | 0.00 | 0.01 | 0.00 | 91 | 1006.7 |
| 20260506101229 | 60 | 240 | 2.0 | 4.0 | 0.00 | 0.01 | 0.00 | 91 | 1006.6 |
| 20260506100721 | 60 | 255 | 2.0 | 1.0 | 0.00 | 0.01 | 0.00 | 91 | 1006.5 |
| 20260506100221 | 60 | 308 | 2.0 | 1.0 | 0.00 | 0.01 | 0.00 | 91 | 1006.4 |
| 20260506095722 | 60 | 240 | 3.0 | 2.0 | 0.00 | 0.01 | 0.00 | 91 | 1006.5 |
| 20260506095216 | 60 | 242 | 5.0 | 4.0 | 0.00 | 0.01 | 0.00 | 91 | 1006.6 |
| 20260506094709 | 60 | 294 | 3.0 | 4.0 | 0.00 | 0.01 | 0.00 | 91 | 1006.5 |
| 20260506094210 | 60 | 297 | 0.0 | 4.0 | 0.00 | 0.01 | 0.00 | 91 | 1006.4 |
| 20260506093704 | 60 | 277 | 2.0 | 2.0 | 0.00 | 0.01 | 0.00 | 91 | 1006.4 |
| 20260506093205 | 60 | 201 | 2.0 | 0.0 | 0.00 | 0.01 | 0.00 | 91 | 1006.5 |
| 20260506092705 | 60 | 225 | 1.0 | 1.0 | 0.00 | 0.01 | 0.00 | 91 | 1006.5 |
| 20260506092151 | 60 | 210 | 2.0 | 0.0 | 0.00 | 0.01 | 0.00 | 91 | 1006.5 |
| 20260506091650 | 60 | 321 | 0.0 | 0.0 | 0.00 | 0.01 | 0.00 | 91 | 1006.6 |
| 20260506091223 | 59 | 270 | 4.0 | 6.0 | 0.00 | 0.01 | 0.00 | 91 | 1006.6 |
| 20260506091148 | 59 | 270 | 4.0 | 6.0 | 0.00 | 0.01 | 0.00 | 91 | 1006.6 |
| 20260506090641 | 59 | 236 | 0.0 | 0.0 | 0.00 | 0.01 | 0.00 | 91 | 1006.6 |
| 20260506090142 | 59 | 200 | 2.0 | 2.0 | 0.00 | 0.01 | 0.00 | 91 | 1006.6 |
| 20260506085642 | 59 | 356 | 0.0 | 0.0 | 0.00 | 0.01 | 0.00 | 91 | 1006.7 |
| 20260506084638 | 59 | 281 | 2.0 | 0.0 | 0.00 | 0.01 | 0.00 | 90 | 1006.7 |
| 20260506084138 | 59 | 264 | 2.0 | 3.0 | 0.00 | 0.01 | 0.00 | 89 | 1006.8 |
| 20260506083630 | 59 | 291 | 0.0 | 4.0 | 0.00 | 0.01 | 0.00 | 89 | 1006.8 |
| 20260506083131 | 59 | 300 | 0.0 | 5.0 | 0.00 | 0.01 | 0.00 | 89 | 1006.8 |
| 20260506082631 | 59 | 301 | 0.0 | 3.0 | 0.00 | 0.01 | 0.00 | 88 | 1006.8 |
| 20260506082127 | 59 | 210 | 2.0 | 2.0 | 0.00 | 0.01 | 0.00 | 88 | 1006.8 |
| 20260506081626 | 59 | 277 | 0.0 | 0.0 | 0.00 | 0.01 | 0.00 | 87 | 1006.8 |
| 20260506081126 | 59 | 329 | 0.0 | 0.0 | 0.00 | 0.01 | 0.00 | 87 | 1006.9 |
| 20260506080619 | 59 | 287 | 0.0 | 0.0 | 0.00 | 0.01 | 0.00 | 86 | 1006.9 |
| 20260506080118 | 59 | 287 | 0.0 | 0.0 | 0.00 | 0.01 | 0.00 | 86 | 1006.9 |
| 20260506073051 | 60 | 229 | 1.0 | 0.0 | 0.00 | 0.01 | 0.00 | 84 | 1007.0 |
| 20260506072551 | 60 | 205 | 2.0 | 2.0 | 0.00 | 0.01 | 0.00 | 83 | 1007.0 |
| 20260506072045 | 60 | 333 | 2.0 | 0.0 | 0.00 | 0.01 | 0.00 | 83 | 1007.0 |
| 20260506071546 | 60 | 236 | 0.0 | 3.0 | 0.00 | 0.01 | 0.00 | 83 | 1007.0 |
| 20260506071047 | 60 | 262 | 3.0 | 0.0 | 0.00 | 0.01 | 0.00 | 82 | 1007.0 |
| 20260506070543 | 60 | 302 | 2.0 | 3.0 | 0.00 | 0.01 | 0.00 | 82 | 1007.0 |
| 20260506062023 | 62 | 281 | 2.0 | 0.0 | 0.00 | 0.01 | 0.00 | 79 | 1007.4 |
| 20260506061524 | 62 | 245 | 2.0 | 1.0 | 0.00 | 0.01 | 0.00 | 78 | 1007.3 |
| 20260506060521 | 62 | 194 | 3.0 | 0.0 | 0.00 | 0.01 | 0.00 | 78 | 1007.4 |
| 20260506051004 | 62 | 214 | 0.0 | 2.0 | 0.00 | 0.01 | 0.00 | 75 | 1007.7 |
| 20260506050725 | 63 | 204 | 1.0 | 0.0 | 0.00 | 0.01 | 0.00 | 75 | 1007.7 |
| 20260506050458 | 63 | 204 | 1.0 | 0.0 | 0.00 | 0.01 | 0.00 | 75 | 1007.7 |
| 20260506045047 | 63 | 307 | 0.0 | 5.0 | 0.00 | 0.01 | 0.00 | 74 | 1007.8 |
| 20260506044948 | 63 | 307 | 0.0 | 5.0 | 0.00 | 0.01 | 0.00 | 74 | 1007.8 |
| 20260506043547 | 63 | 256 | 1.0 | 3.0 | 0.00 | 0.01 | 0.00 | 73 | 1007.8 |
| 20260506043439 | 63 | 256 | 1.0 | 3.0 | 0.00 | 0.01 | 0.00 | 73 | 1007.8 |
| 20260506042940 | 64 | 287 | 2.0 | 2.0 | 0.00 | 0.01 | 0.00 | 73 | 1007.8 |
| 20260506042753 | 64 | 219 | 1.0 | 0.0 | 0.00 | 0.01 | 0.00 | 73 | 1007.8 |
| 20260506042434 | 64 | 219 | 1.0 | 0.0 | 0.00 | 0.01 | 0.00 | 73 | 1007.8 |
| 20260506041929 | 64 | 318 | 2.0 | 3.0 | 0.00 | 0.01 | 0.00 | 72 | 1007.8 |
| 20260506041413 | 64 | 269 | 0.0 | 2.0 | 0.00 | 0.01 | 0.00 | 72 | 1007.8 |
| 20260506040913 | 64 | 252 | 3.0 | 3.0 | 0.00 | 0.01 | 0.00 | 71 | 1007.8 |
| 20260506040410 | 64 | 249 | 2.0 | 3.0 | 0.00 | 0.01 | 0.00 | 71 | 1007.8 |
| 20260506035910 | 65 | 281 | 4.0 | 4.0 | 0.00 | 0.01 | 0.00 | 71 | 1007.8 |
| 20260506035400 | 64 | 236 | 3.0 | 3.0 | 0.00 | 0.01 | 0.00 | 71 | 1007.8 |
| 20260506034855 | 64 | 300 | 0.0 | 6.0 | 0.00 | 0.01 | 0.00 | 70 | 1007.8 |
| 20260506034355 | 64 | 280 | 4.0 | 5.0 | 0.00 | 0.00 | 0.01 | 70 | 1007.8 |
| 20260506033856 | 64 | 262 | 4.0 | 4.0 | 0.00 | 0.00 | 0.01 | 70 | 1007.8 |
| 20260506033344 | 65 | 243 | 4.0 | 1.0 | 0.00 | 0.00 | 0.01 | 70 | 1007.8 |
| 20260506032847 | 65 | 176 | 4.0 | 1.0 | 0.00 | 0.00 | 0.01 | 69 | 1007.8 |
| 20260506032344 | 65 | 270 | 2.0 | 2.0 | 0.00 | 0.00 | 0.01 | 69 | 1007.8 |
| 20260506031836 | 65 | 257 | 4.0 | 3.0 | 0.00 | 0.00 | 0.01 | 69 | 1007.7 |
| 20260506031337 | 65 | 243 | 4.0 | 6.0 | 0.00 | 0.00 | 0.01 | 68 | 1007.8 |
| 20260506030838 | 65 | 215 | 5.0 | 4.0 | 0.00 | 0.00 | 0.01 | 67 | 1007.8 |
| 20260506030417 | 65 | 297 | 2.0 | 0.0 | 0.00 | 0.00 | 0.01 | 66 | 1007.8 |
| 20260506030335 | 65 | 297 | 2.0 | 0.0 | 0.00 | 0.00 | 0.01 | 66 | 1007.8 |
| 20260506025835 | 66 | 300 | 4.0 | 4.0 | 0.00 | 0.00 | 0.01 | 65 | 1007.8 |
| 20260506025336 | 66 | 246 | 2.0 | 0.0 | 0.00 | 0.00 | 0.01 | 65 | 1007.8 |
| 20260506024831 | 66 | 270 | 3.0 | 3.0 | 0.00 | 0.00 | 0.01 | 64 | 1007.8 |
| 20260506024325 | 66 | 326 | 2.0 | 2.0 | 0.00 | 0.00 | 0.01 | 63 | 1007.7 |
| 20260506024129 | 66 | 246 | 3.0 | 3.0 | 0.00 | 0.00 | 0.01 | 63 | 1007.7 |
| 20260506023826 | 66 | 246 | 3.0 | 3.0 | 0.00 | 0.00 | 0.01 | 63 | 1007.7 |
| 20260506023317 | 66 | 245 | 4.0 | 3.0 | 0.00 | 0.00 | 0.01 | 62 | 1007.7 |
| 20260506022909 | 66 | 249 | 2.0 | 1.0 | 0.00 | 0.00 | 0.01 | 61 | 1007.7 |
| 20260506022818 | 66 | 249 | 2.0 | 1.0 | 0.00 | 0.00 | 0.01 | 61 | 1007.7 |
| 20260506022319 | 67 | 259 | 3.0 | 3.0 | 0.00 | 0.00 | 0.01 | 60 | 1007.7 |
| 20260506021810 | 67 | 245 | 4.0 | 2.0 | 0.00 | 0.00 | 0.01 | 59 | 1007.6 |
| 20260506021311 | 67 | 228 | 4.0 | 4.0 | 0.00 | 0.00 | 0.01 | 59 | 1007.6 |
| 20260506020812 | 67 | 233 | 5.0 | 2.0 | 0.00 | 0.00 | 0.01 | 59 | 1007.6 |
| 20260506020306 | 67 | 233 | 6.0 | 3.0 | 0.00 | 0.00 | 0.01 | 58 | 1007.5 |
| 20260506015807 | 67 | 231 | 2.0 | 3.0 | 0.00 | 0.00 | 0.01 | 58 | 1007.5 |
| 20260506015305 | 68 | 143 | 2.0 | 1.0 | 0.00 | 0.00 | 0.01 | 58 | 1007.5 |
| 20260506014759 | 68 | 266 | 4.0 | 3.0 | 0.00 | 0.00 | 0.01 | 57 | 1007.4 |
| 20260506014300 | 68 | 277 | 4.0 | 8.0 | 0.00 | 0.00 | 0.01 | 58 | 1007.5 |
| 20260506013757 | 68 | 257 | 3.0 | 1.0 | 0.00 | 0.00 | 0.01 | 57 | 1007.3 |
| 20260506012809 | 68 | 15 | 3.0 | 4.0 | 0.00 | 0.00 | 0.01 | 56 | 1007.3 |
| 20260506012253 | 68 | 15 | 3.0 | 4.0 | 0.00 | 0.00 | 0.01 | 56 | 1007.3 |
| 20260506011351 | 68 | 281 | 2.0 | 3.0 | 0.00 | 0.00 | 0.01 | 56 | 1007.1 |
| 20260506011250 | 68 | 281 | 2.0 | 3.0 | 0.00 | 0.00 | 0.01 | 56 | 1007.1 |
| 20260506010747 | 68 | 288 | 2.0 | 3.0 | 0.00 | 0.00 | 0.01 | 56 | 1007.1 |
| 20260506010244 | 68 | 200 | 2.0 | 4.0 | 0.00 | 0.00 | 0.01 | 55 | 1007.0 |
| 20260506005740 | 68 | 273 | 0.0 | 1.0 | 0.00 | 0.00 | 0.01 | 55 | 1006.9 |
| 20260506005241 | 68 | 243 | 4.0 | 3.0 | 0.00 | 0.00 | 0.01 | 54 | 1006.9 |
| 20260506004733 | 69 | 260 | 2.0 | 4.0 | 0.00 | 0.00 | 0.01 | 53 | 1006.9 |
| 20260506004234 | 69 | 297 | 3.0 | 1.0 | 0.00 | 0.00 | 0.01 | 52 | 1006.8 |
| 20260506003735 | 69 | 256 | 1.0 | 1.0 | 0.00 | 0.00 | 0.01 | 52 | 1006.8 |
| 20260506002725 | 69 | 259 | 3.0 | 1.0 | 0.00 | 0.00 | 0.01 | 50 | 1006.7 |
| 20260506002224 | 70 | 267 | 1.0 | 4.0 | 0.00 | 0.00 | 0.01 | 49 | 1006.6 |
| 20260506001721 | 70 | 290 | 2.0 | 2.0 | 0.00 | 0.00 | 0.01 | 49 | 1006.6 |
| 20260506001222 | 70 | 287 | 4.0 | 4.0 | 0.00 | 0.00 | 0.01 | 49 | 1006.5 |
| 20260506000720 | 70 | 276 | 4.0 | 1.0 | 0.00 | 0.00 | 0.01 | 48 | 1006.4 |
| 20260506000213 | 71 | 205 | 0.0 | 0.0 | 0.00 | 0.00 | 0.01 | 48 | 1006.4 |
| 20260505235714 | 71 | 249 | 4.0 | 2.0 | 0.00 | 0.00 | 0.01 | 47 | 1006.4 |
| 20260505235214 | 72 | 256 | 3.0 | 2.0 | 0.00 | 0.00 | 0.01 | 46 | 1006.4 |
| 20260505234711 | 72 | 90 | 4.0 | 0.0 | 0.00 | 0.00 | 0.01 | 46 | 1006.3 |
| 20260505233709 | 73 | 229 | 2.0 | 3.0 | 0.00 | 0.00 | 0.01 | 44 | 1006.3 |
| 20260505233206 | 73 | 0 | 6.0 | 4.0 | 0.00 | 0.00 | 0.01 | 43 | 1006.3 |
| 20260505232707 | 74 | 236 | 4.0 | 4.0 | 0.00 | 0.00 | 0.01 | 43 | 1006.1 |
| 20260505232255 | 74 | 224 | 4.0 | 3.0 | 0.00 | 0.00 | 0.01 | 42 | 1006.1 |
| 20260505232204 | 74 | 224 | 4.0 | 3.0 | 0.00 | 0.00 | 0.01 | 42 | 1006.1 |
| 20260505231756 | 74 | 231 | 3.0 | 7.0 | 0.00 | 0.00 | 0.01 | 42 | 1006.1 |
| 20260505231753 | 74 | 291 | 3.0 | 6.0 | 0.00 | 0.00 | 0.01 | 42 | 1006.0 |
| 20260505231701 | 74 | 231 | 3.0 | 7.0 | 0.00 | 0.00 | 0.01 | 42 | 1006.1 |
| 20260505231201 | 74 | 291 | 3.0 | 6.0 | 0.00 | 0.00 | 0.01 | 42 | 1006.0 |
| 20260505230152 | 75 | 267 | 8.0 | 4.0 | 0.00 | 0.00 | 0.01 | 40 | 1005.9 |
| 20260505225653 | 75 | 158 | 7.0 | 3.0 | 0.00 | 0.00 | 0.01 | 40 | 1005.9 |
| 20260505225150 | 75 | 256 | 5.0 | 5.0 | 0.00 | 0.00 | 0.01 | 40 | 1005.8 |
| 20260505224647 | 75 | 114 | 4.0 | 1.0 | 0.00 | 0.00 | 0.01 | 40 | 1005.8 |
| 20260505221140 | 78 | 305 | 7.0 | 7.0 | 0.00 | 0.00 | 0.01 | 37 | 1005.6 |
| 20260505220640 | 78 | 259 | 5.0 | 10.0 | 0.00 | 0.00 | 0.01 | 36 | 1005.7 |
| 20260505220131 | 79 | 291 | 5.0 | 12.0 | 0.00 | 0.00 | 0.01 | 35 | 1005.6 |
| 20260505215626 | 79 | 186 | 7.0 | 7.0 | 0.00 | 0.00 | 0.01 | 35 | 1005.5 |
| 20260505215228 | 79 | 210 | 7.0 | 4.0 | 0.00 | 0.00 | 0.01 | 35 | 1005.5 |
| 20260505215128 | 79 | 210 | 7.0 | 4.0 | 0.00 | 0.00 | 0.01 | 35 | 1005.5 |
| 20260505214623 | 79 | 201 | 9.0 | 8.0 | 0.00 | 0.00 | 0.01 | 35 | 1005.5 |
| 20260505214122 | 79 | 283 | 5.0 | 2.0 | 0.00 | 0.00 | 0.01 | 35 | 1005.4 |
| 20260505213621 | 79 | 13 | 5.0 | 5.0 | 0.00 | 0.00 | 0.01 | 36 | 1005.5 |
| 20260505213116 | 79 | 231 | 9.0 | 10.0 | 0.00 | 0.00 | 0.01 | 35 | 1005.5 |
| 20260505212617 | 79 | 229 | 8.0 | 4.0 | 0.00 | 0.00 | 0.01 | 35 | 1005.4 |
| 20260505211613 | 80 | 346 | 4.0 | 2.0 | 0.00 | 0.00 | 0.01 | 34 | 1005.3 |
| 20260505210100 | 80 | 271 | 5.0 | 6.0 | 0.00 | 0.00 | 0.01 | 33 | 1005.0 |
| 20260505205651 | 81 | 235 | 5.0 | 12.0 | 0.00 | 0.00 | 0.01 | 33 | 1005.1 |
| 20260505205558 | 81 | 235 | 5.0 | 12.0 | 0.00 | 0.00 | 0.01 | 33 | 1005.1 |
| 20260505205059 | 81 | 290 | 7.0 | 8.0 | 0.00 | 0.00 | 0.01 | 33 | 1005.2 |
| 20260505204554 | 82 | 257 | 4.0 | 4.0 | 0.00 | 0.00 | 0.01 | 33 | 1005.0 |
| 20260505203556 | 82 | 260 | 5.0 | 4.0 | 0.00 | 0.00 | 0.01 | 34 | 1005.0 |
| 20260505203051 | 82 | 225 | 6.0 | 5.0 | 0.00 | 0.00 | 0.01 | 33 | 1005.1 |
| 20260505202553 | 82 | 271 | 5.0 | 4.0 | 0.00 | 0.00 | 0.01 | 33 | 1005.3 |
| 20260505202049 | 82 | 264 | 10.0 | 13.0 | 0.00 | 0.00 | 0.01 | 32 | 1005.1 |
| 20260505201923 | 83 | 246 | 6.0 | 3.0 | 0.00 | 0.00 | 0.01 | 32 | 1005.2 |
| 20260505201543 | 83 | 304 | 9.0 | 5.0 | 0.00 | 0.00 | 0.01 | 32 | 1005.2 |
| 20260505201044 | 83 | 246 | 6.0 | 3.0 | 0.00 | 0.00 | 0.01 | 32 | 1005.2 |
| 20260505194710 | 84 | 170 | 9.0 | 8.0 | 0.00 | 0.00 | 0.01 | 34 | 1005.3 |
| 20260505194534 | 84 | 170 | 9.0 | 8.0 | 0.00 | 0.00 | 0.01 | 34 | 1005.3 |
| 20260505194033 | 84 | 270 | 6.0 | 7.0 | 0.00 | 0.00 | 0.01 | 34 | 1005.3 |
| 20260505193534 | 84 | 243 | 6.0 | 6.0 | 0.00 | 0.00 | 0.01 | 34 | 1005.5 |
| 20260505193030 | 84 | 238 | 8.0 | 9.0 | 0.00 | 0.00 | 0.01 | 33 | 1005.5 |
| 20260505192527 | 84 | 222 | 9.0 | 3.0 | 0.00 | 0.00 | 0.01 | 32 | 1005.4 |
| 20260505191519 | 85 | 271 | 7.0 | 8.0 | 0.00 | 0.00 | 0.01 | 32 | 1005.7 |
| 20260505191019 | 85 | 281 | 6.0 | 6.0 | 0.00 | 0.00 | 0.01 | 34 | 1005.7 |
| 20260505190121 | 85 | 264 | 5.0 | 8.0 | 0.00 | 0.00 | 0.01 | 34 | 1005.8 |
| 20260505190015 | 85 | 264 | 5.0 | 8.0 | 0.00 | 0.00 | 0.01 | 34 | 1005.8 |
| 20260505185516 | 84 | 180 | 6.0 | 4.0 | 0.00 | 0.00 | 0.01 | 33 | 1005.8 |
| 20260505184509 | 84 | 260 | 7.0 | 3.0 | 0.00 | 0.00 | 0.01 | 32 | 1006.0 |
| 20260505183509 | 84 | 211 | 8.0 | 5.0 | 0.00 | 0.00 | 0.01 | 32 | 1006.0 |
| 20260505183007 | 85 | 215 | 4.0 | 3.0 | 0.00 | 0.00 | 0.01 | 32 | 1006.0 |
| 20260505182507 | 85 | 283 | 8.0 | 15.0 | 0.00 | 0.00 | 0.01 | 33 | 1006.3 |
| 20260505181501 | 85 | 218 | 11.0 | 5.0 | 0.00 | 0.00 | 0.01 | 33 | 1006.3 |
| 20260505181001 | 84 | 285 | 6.0 | 4.0 | 0.00 | 0.00 | 0.01 | 36 | 1006.2 |
| 20260505175956 | 84 | 359 | 4.0 | 3.0 | 0.00 | 0.00 | 0.01 | 37 | 1006.4 |
| 20260505174636 | 84 | 212 | 9.0 | 4.0 | 0.01 | 0.00 | 0.01 | 36 | 1006.6 |
| 20260505174452 | 84 | 314 | 9.0 | 6.0 | 0.01 | 0.00 | 0.01 | 37 | 1006.6 |
| 20260505173953 | 84 | 212 | 9.0 | 4.0 | 0.01 | 0.00 | 0.01 | 36 | 1006.6 |
| 20260505173610 | 85 | 260 | 7.0 | 7.0 | 0.01 | 0.00 | 0.01 | 37 | 1006.8 |
| 20260505173453 | 85 | 260 | 7.0 | 7.0 | 0.01 | 0.00 | 0.01 | 37 | 1006.8 |
| 20260505172950 | 85 | 285 | 6.0 | 5.0 | 0.01 | 0.00 | 0.01 | 37 | 1006.6 |